This demonstration page uses our WeatherBlox Daily Observations layout. Learn more.

Left ArrowRight Arrow

Hourly Observations for April 23, 2020

Temp ( °F °C ) Dew Point ( °F °C ) Humidity (%) Winds ( mph kmh ) Pressure ( in mb ) Visibility ( mi km ) Precip ( " mm )
12:15 am 00:15 Partly Cloudy 50 10 32 0 50 50 N 3 6 30.06 1018 10 16.0934 0 0
12:35 am 00:35 Partly Cloudy 52 11 30 -1 44 44 ESE 3 6 30.06 1018 10 16.0934 0 0
12:55 am 00:55 Mostly Cloudy 50 10 32 0 50 50 Calm 30.07 1018 10 16.0934 0 0
1:15 am 01:15 Cloudy 50 10 32 0 50 50 NE 3 6 30.06 1018 10 16.0934 0 0
1:35 am 01:35 Cloudy 50 10 32 0 50 50 NE 5 7 30.06 1018 10 16.0934 0 0
1:55 am 01:55 Mostly Cloudy 50 10 32 0 50 50 ENE 6 9 30.05 1017 10 16.0934 0 0
2:15 am 02:15 Partly Cloudy 48 9 32 0 54 54 Calm 30.05 1018 10 16.0934 0 0
2:35 am 02:35 Clear 46 8 32 0 57 57 NE 3 6 30.04 1017 10 16.0934 0 0
2:55 am 02:55 Clear 45 7 34 1 66 66 Calm 30.04 1017 10 16.0934 0 0
3:15 am 03:15 Clear 45 7 34 1 66 66 Calm 30.03 1017 10 16.0934 0 0
3:35 am 03:35 Clear 43 6 34 1 71 71 Calm 30.02 1017 10 16.0934 0 0
3:55 am 03:55 Clear 41 5 34 1 76 76 Calm 30.03 1017 10 16.0934 0 0
4:15 am 04:15 Clear 41 5 34 1 76 76 SW 3 6 30.04 1017 10 16.0934 0 0
4:35 am 04:35 Clear 43 6 34 1 71 71 Calm 30.03 1017 10 16.0934 0 0
4:55 am 04:55 Clear 41 5 34 1 76 76 Calm 30.04 1017 10 16.0934 0 0
5:15 am 05:15 Clear 43 6 34 1 71 71 Calm 30.04 1017 10 16.0934 0 0
5:35 am 05:35 Clear 43 6 34 1 71 71 Calm 30.04 1017 10 16.0934 0 0
5:55 am 05:55 Clear 41 5 34 1 76 76 Calm 30.04 1017 10 16.0934 0 0
6:15 am 06:15 Clear 41 5 34 1 76 76 Calm 30.04 1017 10 16.0934 0 0
6:35 am 06:35 Sunny 41 5 36 2 81 81 Calm 30.05 1018 10 16.0934 0 0
6:55 am 06:55 Sunny 41 5 36 2 81 81 Calm 30.06 1018 10 16.0934 0 0
7:15 am 07:15 Sunny 43 6 36 2 76 76 Calm 30.06 1018 10 16.0934 0 0
7:35 am 07:35 Sunny 43 6 37 3 81 81 Calm 30.05 1018 10 16.0934 0 0
7:55 am 07:55 Sunny 45 7 37 3 76 76 Calm 30.05 1018 10 16.0934 0 0
8:15 am 08:15 Sunny 46 8 37 3 71 71 Calm 30.05 1018 10 16.0934 0 0
8:35 am 08:35 Sunny 48 9 36 2 62 62 Calm 30.05 1018 10 16.0934 0 0
8:55 am 08:55 Sunny 50 10 37 3 62 62 Calm 30.06 1018 10 16.0934 0 0
9:15 am 09:15 Sunny 52 11 36 2 54 54 ESE 3 6 30.05 1018 10 16.0934 0 0
9:35 am 09:35 Sunny 52 11 36 2 54 54 ESE 5 7 30.04 1017 10 16.0934 0 0
9:55 am 09:55 Sunny 52 11 37 3 58 58 E 3 6 30.03 1017 10 16.0934 0 0
10:15 am 10:15 Sunny 52 11 37 3 58 58 ENE 3 6 30.03 1017 10 16.0934 0 0
10:35 am 10:35 Sunny 54 12 36 2 51 51 SE 7 11 30.02 1017 10 16.0934 0 0
10:55 am 10:55 Sunny 54 12 36 2 51 51 E 3 6 30.02 1017 10 16.0934 0 0
11:15 am 11:15 Sunny 54 12 36 2 51 51 ESE 8 13 30.01 1016 10 16.0934 0 0
11:35 am 11:35 Sunny 54 12 36 2 51 51 ESE 7 11 30 1016 10 16.0934 0 0
11:55 am 11:55 Sunny 54 12 36 2 51 51 ESE 7 11 30 1016 10 16.0934 0 0
12:15 pm 12:15 Sunny 55 13 36 2 47 47 SSE 6 9 30 1016 10 16.0934 0 0
12:35 pm 12:35 Sunny 55 13 37 3 51 51 SSE 5 7 29.98 1015 10 16.0934 0 0
12:55 pm 12:55 Sunny 55 13 37 3 51 51 ESE 3 6 29.98 1015 10 16.0934 0 0
1:15 pm 13:15 Partly Cloudy 57 14 39 4 51 51 SSE 8 13 29.98 1015 10 16.0934 0 0
1:35 pm 13:35 Mostly Cloudy 57 14 39 4 51 51 S 6 9 29.98 1015 10 16.0934 0 0
1:55 pm 13:55 Cloudy 57 14 41 5 55 55 SSE 5 7 29.97 1015 10 16.0934 0 0
2:15 pm 14:15 Cloudy 59 15 41 5 51 51 SE 5 7 29.97 1015 10 16.0934 0 0
2:35 pm 14:35 Cloudy 57 14 45 7 63 63 SSE 5 7 29.97 1015 10 16.0934 0 0
2:55 pm 14:55 Cloudy 55 13 45 7 67 67 SSE 6 9 29.96 1015 10 16.0934 0 0
3:15 pm 15:15 Cloudy 55 13 48 9 77 77 SSE 7 11 29.96 1015 10 16.0934 0.01 0.254
3:35 pm 15:35 Cloudy 54 12 50 10 88 88 S 6 9 29.95 1014 10 16.0934 0.02 0.508
3:55 pm 15:55 Cloudy 54 12 50 10 88 88 SE 7 11 29.94 1014 7 11.26538 0.04 1.016
4:15 pm 16:15 Cloudy 54 12 50 10 88 88 SE 5 7 29.93 1014 7 11.26538 0.02 0.508
4:35 pm 16:35 Cloudy 52 11 52 11 100 100 E 5 7 29.91 1013 10 16.0934 0.03 0.762
4:55 pm 16:55 Cloudy 52 11 52 11 100 100 ESE 5 7 29.9 1013 10 16.0934 0.04 1.016
5:15 pm 17:15 Cloudy 52 11 50 10 94 94 ESE 7 11 29.89 1012 7 11.26538 0.02 0.508
5:35 pm 17:35 Cloudy 50 10 50 10 100 100 ESE 7 11 29.92 1013 5 8.0467 0.03 0.762
5:55 pm 17:55 Cloudy 50 10 50 10 100 100 ESE 7 11 29.91 1013 7 11.26538 0.05 1.27
6:15 pm 18:15 Cloudy 50 10 50 10 100 100 ESE 6 9 29.91 1013 5 8.0467 0.02 0.508
6:35 pm 18:35 Cloudy 50 10 50 10 100 100 ESE 7 11 29.9 1012 3 4.82802 0.05 1.27
6:55 pm 18:55 Cloudy 50 10 50 10 100 100 SE 6 9 29.9 1012 3 4.82802 0.08 2.032
7:15 pm 19:15 Cloudy 50 10 50 10 100 100 E 3 6 29.89 1012 3 4.82802 0.01 0.254
7:35 pm 19:35 Cloudy 48 9 48 9 100 100 ESE 8 13 29.88 1012 2.5 4.02335 0.03 0.762
7:55 pm 19:55 Cloudy 48 9 48 9 100 100 Calm 29.88 1012 3 4.82802 0.06 1.524
8:15 pm 20:15 Cloudy 50 10 50 10 100 100 ESE 7 11 29.86 1011 3 4.82802 0.02 0.508
8:35 pm 20:35 Cloudy 50 10 50 10 100 100 ESE 6 9 29.85 1011 3 4.82802 0.05 1.27
8:55 pm 20:55 Cloudy 50 10 50 10 100 100 SSE 7 11 29.85 1011 5 8.0467 0.07 1.778
9:15 pm 21:15 Cloudy 52 11 52 11 100 100 S 8 13 29.84 1011 10 16.0934 0.01 0.254
9:35 pm 21:35 Cloudy 52 11 52 11 100 100 SSE 5 7 29.83 1010 10 16.0934 0.03 0.762
9:55 pm 21:55 Cloudy 52 11 52 11 100 100 SSE 7 11 29.83 1010 7 11.26538 0.06 1.524
10:15 pm 22:15 Cloudy 52 11 52 11 100 100 SSE 7 11 29.83 1010 5 8.0467 0.01 0.254
10:35 pm 22:35 Cloudy 50 10 50 10 100 100 SSE 9 15 29.83 1010 7 11.26538 0.02 0.508
10:55 pm 22:55 Cloudy 50 10 50 10 100 100 SSE 6 9 29.82 1010 10 16.0934 0.02 0.508
11:15 pm 23:15 Cloudy 50 10 50 10 100 100 S 10 17 29.81 1009 7 11.26538 0 0
11:35 pm 23:35 Cloudy 50 10 50 10 100 100 SSE 6 9 29.8 1009 10 16.0934 0 0
11:55 pm 23:55 Cloudy 50 10 50 10 100 100 SSE 6 9 29.79 1009 10 16.0934 0 0

Powered by AerisWeather